Bandar Judi Ceme Online dan Agen Live Poker Online Terbesar dan Terpercaya

Bandar Toto Resmi Online Indonesia
Sabung ayam - Sabung Ayam Live

Jackpot

Texas Poker Multi Jackpot System

Kini Telah hadir Jackpot SUPER ROYAL FLUSH

Kini Telah hadir Jackpot 2000 (khusus table VIP keatas).

Ikutilah global jackpot yang tersedia di system kami, dengan system jackpot terbaru dan pertama di indonesia, anda dapat membeli jackpot dengan harga 100 rupiah saja dan menangkan hadiahnya hingga puluhan juta rupiah.

Jackpot bukanlah suatu keharusan untuk dibeli, namun kami memberikan suatu fitur tambahan untuk member tercinta dari www.kamipkr.net.

Terdapat tiga pilihan harga jackpot yang bisa anda beli yaitu :100,500,1000 dan 2000(khusus table VIP Keatas) rupiah.

Hadiah dari Multi jackpot system www.kamipkr.net

  1. full house x 10 harga jackpot yang anda beli.
      (contoh:anda membeli 1000 maka:1000 X10 = 10.000)
  2. four of kind x 250 harga jackpot yang anda beli
      (contoh:anda membeli 1000 maka:1000 X250 = 250.000)
  3. Straight flush x 1200
      (contoh:anda membeli 1000 maka:1000 X1200 = 1.200.000)
  4. Royal flush x 10000 harga jackpot yang anda beli
      (contoh:anda membeli 1000 maka:1000 X10000 = 10.000.000)
  5. SUPER ROYAL FLUSH x 30000 harga jackpot yang anda beli
      (contoh:anda membeli 1000 maka:1000 X30000 = 30.000.000)

Kondisi kartu

  1. full house adalah kondisi kartu dimana kartu anda dan kartu tengah dengan total 7 kartu bisa mendapatkan nilai 5 kartu dengan kombinasi 1 tris(three of kind) dan 1 pair, contoh 3 kartu 10 dan 2 kartu 5
  2. Four of kind adalah kondisi kartu dimana kartu anda dan kartu tengah dengan total 7 kartu bisa mendapatkan nilai 5 kartu dengan kombinasi 4 kartu yang sama jumlah dan 1 kartu apapun juga contoh anda mendapatkan 4 buah kartu angka 3 dan 1 kartu apapun.
  3. Staright flush adalah kondisi kartu dimana kartu anda dan kartu tengah dengan total 7 kartu bisa mendapatkan nilai 5 kartu dengan kombinasi seri / staright dengan kembang yang sama contoh : urutan kartu dari angka 5, 6, 7, 8 , 9 10 dengan kembang yg sama misalnya as hati
  4. Royal flush adalah kondisi kartu dimana kartu anda dan kartu tengah dengan total 7 kartu bisa mendapatkan nilai 5 kartu dengan kombinasi seri / staright dengan kembang yang sama tetapi kartu tersebut haruslah dimulai dari 10. contoh 10, Queen, Jack, King dan aces dengan kembang yang sama
  5. Super Royal flush adalah kondisi kartu dimana Kedua kartu anda digabung dengan 3 kartu pertama meja haruslah royal flush. contoh kartu anda 10,Queen kembang sama dan 3 kartu pertama meja adalah Jack, King dan aces dengan kembang yang sama

Demikian adalah penjelasan dari Multi Jackpot www.kamipkr.net terima kasih dan selamat bermain salam hoki dari kami

Texas Poker Jackpot Winner

TOP SUPER ROYAL FLUSH
No.TanggalNamaPriceWin
121/09 14:11ROYALJOZZSuper Royal flush60,000,000
221/09 13:43BA_ATIYOSuper Royal flush6,000,000
321/09 12:23B8EKCBJIYMSuper Royal flush3,000,000
421/09 08:32TUPO25Super Royal flush3,000,000
521/09 07:21SLOME898Super Royal flush30,000,000
TOP ROYAL FLUSH
No.TanggalNamaPriceWin
122/09 00:44TADAH3Royal flush20,000,000
222/09 00:38AALLIINN88Royal flush1,000,000
322/09 00:27F2000Royal flush5,000,000
422/09 00:25A0B1B848Royal flush2,000,000
522/09 00:23WOLFRAMRoyal flush5,000,000
TOP STRAIGHT FLUSH
No.TanggalNamaPriceWin
122/09 00:45SE7EN77Straight Flush120,000
222/09 00:42CHELSEA41Straight Flush600,000
322/09 00:42YANTEXXStraight Flush600,000
422/09 00:41KIK303Straight Flush600,000
522/09 00:41S_KOStraight Flush240,000
LATEST JACKPOT
No.TanggalNamaPriceWin
122/09 00:45ARGAL0Full House5,000
222/09 00:45T4DABM8000Full House2,000
322/09 00:45FHNDIFull House10,000
422/09 00:45ALIPUNGFull House2,000
522/09 00:45RESTU018Full House10,000
622/09 00:45SUWERNO555Full House5,000
722/09 00:45SENGEK80Full House2,000
822/09 00:45DREAM24Full House10,000
922/09 00:45NENG_ZAHRAFull House10,000
1022/09 00:45NANANKKOEFull House20,000
1122/09 00:45SE7EN77Straight Flush120,000
1222/09 00:45MAK_AZZFull House5,000
1322/09 00:45GRAHAM09Full House5,000
1422/09 00:45JOYOBENDOLFull House2,000
1522/09 00:45KOMPAK90Full House10,000
1622/09 00:45E59179A8Full House2,000
1722/09 00:45ALDIBNIFull House500
1822/09 00:45SAMI_MAWONFour Of A Kind25,000
1922/09 00:45F4THI5Y4HFull House2,000
2022/09 00:45T4DUMAL66Full House5,000
2122/09 00:45HOKIDEBY82Full House5,000
2222/09 00:45DAVI24Full House5,000
2322/09 00:45SAKSEK05Full House5,000
2422/09 00:45DJARUM97Full House2,000
2522/09 00:45APALAGI_17Full House5,000
2622/09 00:45SASBIAFull House5,000
2722/09 00:44SULI45Full House2,000
2822/09 00:44LB86Full House2,000
2922/09 00:44APRILIA35Four Of A Kind50,000
3022/09 00:44BO63EL1384Full House20,000
3122/09 00:44OPTIMUS999Full House10,000
3222/09 00:44MROMPGFull House2,000
3322/09 00:44VOLTUS88Full House2,000
3422/09 00:44KUYT90Full House5,000
3522/09 00:44TANGSEJAYAFull House10,000
3622/09 00:44J60WVBF98BFull House1,000
3722/09 00:44JOLLY12345Full House2,000
3822/09 00:44A09ED367Full House2,000
3922/09 00:44VIRTUAL66Full House5,000
4022/09 00:44DUTRO2018Full House2,000
4122/09 00:44MEMEY24Full House10,000
4222/09 00:44AFEF2552Full House20,000
4322/09 00:44DUITKU33Full House20,000
4422/09 00:44MARVEL_999Full House5,000
4522/09 00:44TJ4H22Four Of A Kind250,000
4622/09 00:44AWAN1111Full House1,000
4722/09 00:44BENSU99Full House2,000
4822/09 00:44JIRE930930Full House5,000
4922/09 00:44XXCT84VJ1RFull House20,000
5022/09 00:44WD1Full House2,000

Domino Multi Jackpot System

Ikutilah global jackpot yang tersedia di system kami, dengan system jackpot terbaru dan pertama di indonesia, anda dapat membeli jackpot dengan harga 100 rupiah saja dan menangkan hadiahnya hingga puluhan juta rupiah.

Jackpot bukanlah suatu keharusan untuk dibeli, namun kami memberikan suatu fitur tambahan untuk member tercinta dari www.kamipkr.net.

Terdapat tiga pilihan harga jackpot yang bisa anda beli yaitu :100,500 dan 1000 rupiah.

Hadiah dari Multi jackpot system www.kamipkr.net

  1. Murni Kecil x 50 harga jackpot yang anda beli.
      (contoh:anda membeli 1000 maka:1000 X 50 = 50.000)
  2. Murni Besar x 50 harga jackpot yang anda beli
      (contoh:anda membeli 1000 maka:1000 X 50 = 50.000)
  3. BALAK x 100 harga jackpot yang anda beli
      (contoh:anda membeli 1000 maka:1000 X 100 = 100.000)
  4. ENAM DEWA x 6666 harga jackpot yang anda beli
      (contoh:anda membeli 1000 maka:1000 X 6666 = 6.666.000)

Demikian adalah penjelasan dari Multi Jackpot www.kamipkr.net terima kasih dan selamat bermain salam hoki dari kami

Domino Jackpot Winner

TOP ENAM DEWA
No.TanggalNamaPriceWin
122/09 00:44AMSEO99murni enam3,333,000
222/09 00:43DYCK22murni enam6,666,000
321/09 23:35TEMPE444murni enam666,600
421/09 21:47MORBAG029murni enam3,333,000
521/09 21:27STW79murni enam3,333,000
TOP BALAK
No.TanggalNamaPriceWin
122/09 00:43G4RONG89balak50,000
222/09 00:39RAVA303balak50,000
322/09 00:39J1010balak100,000
422/09 00:37TONO757balak10,000
522/09 00:36C84SHBOY24699balak100,000
LATEST JACKPOT
No.TanggalNamaPriceWin
122/09 00:45MGELIK9murni besar50,000
222/09 00:44AMSEO99murni enam3,333,000
322/09 00:44ACIL66murni kecil50,000
422/09 00:44JANUARY20murni besar50,000
522/09 00:44RHRH17murni kecil5,000
622/09 00:43G4RONG89balak50,000
722/09 00:43DYCK22murni enam6,666,000
822/09 00:43ESHAALmurni besar25,000
922/09 00:42KEROCO2424murni kecil5,000
1022/09 00:42SCU4KA9ZB6murni besar5,000
1122/09 00:42J1010murni kecil50,000
1222/09 00:41UDUZ22murni kecil50,000
1322/09 00:41FADERSmurni kecil50,000
1422/09 00:41W1732IEmurni besar5,000
1522/09 00:41APASTU0320lucky992,500
1622/09 00:40GRANDONG96murni kecil50,000
1722/09 00:39RAVA303balak50,000
1822/09 00:39J1010balak100,000
1922/09 00:39SEVENGODmurni besar50,000
2022/09 00:38UBD05murni besar50,000
2122/09 00:37TONO757balak10,000
2222/09 00:37QQRULIYAHmurni besar25,000
2322/09 00:37JALIMINSBRmurni kecil5,000
2422/09 00:36RONGGA69lucky9910,000
2522/09 00:36OKAJAYAmurni besar5,000
2622/09 00:36SIDE72lucky9950,000
2722/09 00:36UDUZ22murni besar50,000
2822/09 00:36C84SHBOY24699balak100,000
2922/09 00:35HAZEL01murni kecil25,000
3022/09 00:35APINK34murni kecil5,000
3122/09 00:34ANGKE888murni besar50,000
3222/09 00:34ANTOK55murni besar50,000
3322/09 00:33ROOM28murni besar50,000
3422/09 00:32LALALILI88murni besar50,000
3522/09 00:31JEKP0T789balak50,000
3622/09 00:31CIHUUII005lucky992,500
3722/09 00:31VIOLET72balak50,000
3822/09 00:31KOCEXKACEKmurni besar50,000
3922/09 00:30SNW4XPMWZDmurni besar50,000
4022/09 00:30JPWINNER87murni besar50,000
4122/09 00:30GEGER057murni besar50,000
4222/09 00:30GANDA40murni besar50,000
4322/09 00:30HAM626murni kecil50,000
4422/09 00:29KECUBUNG01murni kecil50,000
4522/09 00:29FRANS48murni besar50,000
4622/09 00:28OKAJAYAmurni besar5,000
4722/09 00:28AYAHOLOTmurni besar50,000
4822/09 00:27VIOLET72murni kecil25,000
4922/09 00:27TARAUPmurni kecil50,000
5022/09 00:27VIOLET72murni kecil25,000

Ceme Multi Jackpot System

Jackpot dilihat dari gabungan kartu pemain dengan kartu bandar. Bandar harus membeli jackpot sebanyak jumlah player yang sedang duduk. Sebagai contoh bila terdapat 3 pemain duduk bermain, dan bandar memutuskan untuk membeli jackpot Rp 1.000, maka pada periode tersebut bandar akan membeli jackpot sebanyak 3xRp1.000 = Rp3.000.

Jackpot bukanlah suatu keharusan untuk dibeli, namun kami memberikan suatu fitur tambahan untuk member tercinta dari www.kamipkr.net.

Terdapat tiga pilihan harga jackpot yang bisa anda beli yaitu :100,500 dan 1000 rupiah.

Hadiah dari Multi jackpot system www.kamipkr.net

  1. Murni Kecil x 50 harga jackpot yang anda beli.
      (contoh:anda membeli 1000 maka:1000 X 50 = 50.000)
  2. Murni Besar x 50 harga jackpot yang anda beli
      (contoh:anda membeli 1000 maka:1000 X 50 = 50.000)
  3. BALAK x 200 harga jackpot yang anda beli
      (contoh:anda membeli 1000 maka:1000 X 200 = 200.000)
  4. ENAM DEWA x 6666 harga jackpot yang anda beli
      (contoh:anda membeli 1000 maka:1000 X 6666 = 6.666.000)

Demikian adalah penjelasan dari Multi Jackpot www.kamipkr.net terima kasih dan selamat bermain salam hoki dari kami

Ceme Jackpot Winner

TOP ENAM DEWA
No.TanggalNamaPriceWin
122/09 00:41KINGQ9murni enam6,666,000
222/09 00:33BAYCODETmurni enam6,666,000
322/09 00:33ANARKI88murni enam6,666,000
422/09 00:25MYLANOmurni enam6,666,000
522/09 00:25MLD1123murni enam6,666,000
TOP BALAK
No.TanggalNamaPriceWin
122/09 00:45IONZCGA8AZbalak200,000
222/09 00:45BEWEYEbalak20,000
322/09 00:44MB0OAC99CLbalak20,000
422/09 00:43NOVE567balak200,000
522/09 00:42APUNKSbalak20,000
LATEST JACKPOT
No.TanggalNamaPriceWin
122/09 00:45MAKImurni besar25,000
222/09 00:45TITITE69murni besar50,000
322/09 00:45IONZCGA8AZbalak200,000
422/09 00:45IBI766murni kecil50,000
522/09 00:45GENK69murni kecil50,000
622/09 00:45WGHKLGN9murni besar25,000
722/09 00:45JAUDmurni besar5,000
822/09 00:45WGHKLGN9murni besar25,000
922/09 00:45SUN666murni besar25,000
1022/09 00:45PPA_99murni besar25,000
1122/09 00:45BEWEYEbalak20,000
1222/09 00:44KKTL99murni kecil5,000
1322/09 00:44SANUR123murni kecil50,000
1422/09 00:44TOMJERRY87murni kecil50,000
1522/09 00:44JENARO97murni kecil50,000
1622/09 00:44ENOBMAmurni besar25,000
1722/09 00:44B90C1875murni besar50,000
1822/09 00:44PRADITYA12murni besar25,000
1922/09 00:44GEFORCE78murni besar50,000
2022/09 00:44FEDERAL121murni besar25,000
2122/09 00:44MOHSEHmurni besar25,000
2222/09 00:44KUY789murni besar5,000
2322/09 00:44SAKURMAUmurni besar25,000
2422/09 00:44MB0OAC99CLbalak20,000
2522/09 00:44LANGKAH6murni kecil50,000
2622/09 00:44MANGUN123murni kecil50,000
2722/09 00:43BEGJAQIUmurni kecil50,000
2822/09 00:43DCIPDEALERmurni kecil50,000
2922/09 00:43IBI766murni besar50,000
3022/09 00:43KIKKUK9murni besar50,000
3122/09 00:43NOVE567balak200,000
3222/09 00:43SOLUS88murni kecil25,000
3322/09 00:42BNJOYmurni kecil25,000
3422/09 00:42KETE_21murni kecil25,000
3522/09 00:42GALANG55murni kecil50,000
3622/09 00:42ENDIKmurni kecil50,000
3722/09 00:42GOOBELTTmurni kecil25,000
3822/09 00:42APUNKSbalak20,000
3922/09 00:42MATSANTO22balak100,000
4022/09 00:42VANCHA21balak100,000
4122/09 00:42KAIRA27balak20,000
4222/09 00:42ANCUXXbalak100,000
4322/09 00:42KFCKUmurni besar25,000
4422/09 00:42LYR03murni kecil25,000
4522/09 00:42IDIIN04balak200,000
4622/09 00:42JUNO020balak20,000
4722/09 00:42HAJIWINmurni kecil50,000
4822/09 00:42SAKEMATTmurni kecil50,000
4922/09 00:42RUKANI12murni kecil50,000
5022/09 00:42OJIIQmurni kecil50,000